This is the latest recevied weather packets stored in our database for station/object K4VEB. If no packets are shown the sender has not sent any weather packets the latest 10 day(s).
| Time | Temp. | Humidity | Pressure | Rain* | Wind** | Luminosity | Snow |
|---|---|---|---|---|---|---|---|
| 1778020456 | 30° C | 38% | 1014.3 hPa | 0 mm | - | 146 W/m² | - |
| 1778020152 | 30° C | 38% | 1014 hPa | 0 mm | - | 151 W/m² | - |
| 1778019848 | 30° C | 37% | 1013.8 hPa | 0 mm | - | 181 W/m² | - |
| 1778019544 | 30.56° C | 38% | 1013.9 hPa | 0 mm | - | 116 W/m² | - |
| 1778019242 | 30° C | 38% | 1014.1 hPa | 0 mm | - | 183 W/m² | - |
| 1778018333 | 31.11° C | 37% | 1014.2 hPa | 0 mm | - | 292 W/m² | - |
| 1778018031 | 31.11° C | 37% | 1013.9 hPa | 0 mm | - | 292 W/m² | - |
| 1778017729 | 31.11° C | 37% | 1014 hPa | 0 mm | - | 292 W/m² | - |
| 1778017426 | 31.11° C | 36% | 1014.2 hPa | 0 mm | - | 347 W/m² | - |
| 1778017123 | 31.11° C | 36% | 1014.1 hPa | 0 mm | - | 329 W/m² | - |
| 1778016821 | 30.56° C | 37% | 1014 hPa | 0 mm | - | 376 W/m² | - |
| 1778016517 | 30.56° C | 37% | 1014.3 hPa | 0 mm | - | 380 W/m² | - |
| 1778016214 | 30.56° C | 39% | 1014.1 hPa | 0 mm | - | 290 W/m² | - |
| 1778015910 | 31.11° C | 37% | 1014.2 hPa | 0 mm | - | 400 W/m² | - |
| 1778015608 | 31.11° C | 38% | 1013.9 hPa | 0 mm | - | 451 W/m² | - |
| 1778015304 | 31.11° C | 38% | 1014.1 hPa | 0 mm | - | 451 W/m² | - |
| 1778015001 | 30.56° C | 39% | 1014.1 hPa | 0 mm | - | 466 W/m² | - |
| 1778014698 | 30.56° C | 38% | 1013.9 hPa | 0 mm | - | 455 W/m² | - |
| 1778014397 | 30.56° C | 38% | 1014 hPa | 0 mm | - | 480 W/m² | - |
| 1778014093 | 30° C | 40% | 1014.1 hPa | 0 mm | - | 514 W/m² | - |
| 1778013791 | 30° C | 40% | 1014.1 hPa | 0 mm | - | 556 W/m² | - |
| 1778013488 | 30° C | 40% | 1014.3 hPa | 0 mm | - | 511 W/m² | - |
| 1778013184 | 29.44° C | 41% | 1014.2 hPa | 0 mm | - | 532 W/m² | - |
| 1778012881 | 29.44° C | 42% | 1014.2 hPa | 0 mm | - | 483 W/m² | - |
| 1778012577 | 29.44° C | 42% | 1014.2 hPa | 0 mm | - | 200 W/m² | - |
* Rain latest hour (hover to see other rain measurements)
** Current wind speed in m/s (hover to see current wind gust speed)